Location: Adlholz
(49.5802°N, 11.8393°E)
Time: 16:29:48
(UTC+00:00)

Daily predictions for brighter satellites

Satellite Brightness Start Highest point End
(mag) Time Altitude Azimuth Time Altitude Azimuth Time Altitude Azimuth
Cosmos 1125 Rocket 3.6 16:19:20 10° S 16:24:28 67° ESE 16:29:40 10° NNE
Cosmos 1602 Rocket 3.7 16:20:14 10° S 16:24:29 52° E 16:28:44 10° NNE
Starlink U 3.2 16:21:58 10° W 16:25:02 57° NNW 16:28:06 10° ENE
Starlink B 3.2 16:23:46 10° W 16:26:49 56° NNW 16:29:54 10° ENE
COSMOS 2428 3.8 16:21:41 10° NW 16:27:14 52° WSW 16:32:46 10° S
CZ-4B R/B 3.2 16:25:38 10° N 16:28:20 28° WNW 16:31:00 10° SW
Cosmos 2154 Rocket 4.1 16:22:34 10° S 16:28:43 61° E 16:34:52 10° NNE
Cosmos 372 Rocket 4.5 16:25:30 10° SW 16:30:35 63° WNW 16:35:46 10° NNE
NOSS 0 Rocket 4.2 16:26:48 10° NNW 16:33:02 76° WSW 16:39:12 10° SSE
Envisat 3.1 16:28:26 10° SSE 16:33:24 58° ENE 16:38:25 10° N
COSMO-SKYMED 1 3.7 16:33:25 10° NE 16:37:01 25° E 16:40:36 10° SSE
Starlink D 3.3 16:34:42 10° W 16:37:46 52° NNW 16:40:46 11° ENE
Starlink S 3.3 16:36:35 10° W 16:39:39 51° NNW 16:42:34 11° ENE
Cosmos 1610 Rocket 4.5 16:33:49 10° S 16:39:55 78° E 16:46:07 10° NNE
Starlink C 3.3 16:38:24 10° W 16:41:28 50° NNW 16:44:19 12° ENE
Meteor 2-1 Rocket 4.1 16:36:05 10° N 16:41:37 73° ENE 16:47:09 10° SSE
Cosmos 1758 Rocket 4.1 16:38:08 10° SSE 16:42:04 36° E 16:46:02 10° NNE
Starlink E 3.4 16:40:18 10° W 16:43:22 50° NNW 16:46:08 12° ENE
Cosmos 2074 Rocket 4.4 16:38:55 10° SSW 16:45:12 68° WNW 16:51:29 10° N
Starlink J 3.4 16:42:11 10° W 16:45:15 49° N 16:47:57 13° ENE
Cosmos 1626 Rocket 3.7 16:41:12 10° SSW 16:45:31 77° W 16:49:51 10° N
Cosmos 44 4.4 16:42:04 10° SSE 16:45:42 23° ESE 16:48:54 12° ENE
Starlink V 3.4 16:44:03 10° W 16:47:07 48° N 16:49:44 13° ENE
YAOGAN 6 2.8 16:45:20 10° SSE 16:48:53 50° ENE 16:52:27 10° N
Starlink H 3.4 16:45:57 10° W 16:49:01 48° N 16:51:34 14° ENE
Cosmos 1269 Rocket 4.2 16:44:00 10° NNW 16:49:18 83° WSW 16:54:35 10° SSE
USA 267 3.3 16:43:16 10° ENE 16:49:51 90° NNW 16:56:25 10° WSW
Starlink F 3.4 16:47:52 10° W 16:50:55 47° N 16:53:23 14° ENE
NOAA 12 4.1 16:46:55 10° SSE 16:52:09 88° ENE 16:57:27 10° NNW
Starlink G 3.4 16:49:45 10° W 16:52:49 47° N 16:55:13 15° ENE
Starlink L 3.4 16:51:38 10° W 16:54:42 47° N 16:57:02 16° ENE
Cosmos 1939 Rocket 3.8 16:53:17 10° ESE 16:56:31 25° ENE 16:59:48 10° N
Starlink A 3.5 16:53:33 10° W 16:56:37 46° N 16:58:52 16° ENE
Cosmos 1626 2.8 16:53:25 10° SSW 16:57:03 57° WNW 17:00:45 10° N
Cosmos 962 Rocket 4.5 16:51:20 10° S 16:57:22 64° E 17:03:29 10° NNE
Starlink R 3.5 16:55:29 10° W 16:58:32 46° N 17:00:42 17° ENE
SJ 16-02 4.1 16:58:21 10° WNW 16:59:58 12° NW 17:01:34 10° NNW
Starlink K 3.5 16:57:22 10° W 17:00:25 45° N 17:02:31 18° ENE
Cosmos 1300 4.3 16:58:24 10° NNW 17:01:59 39° W 17:05:34 10° SSW
Cosmos 1607 4.5 16:56:02 10° WSW 17:02:04 55° NW 17:08:11 10° NE
Starlink M 3.5 16:59:14 10° W 17:02:18 45° N 17:04:19 18° ENE
Okean O Rocket 4.5 17:00:37 10° SW 17:04:01 21° W 17:07:28 10° NW
Cosmos 2237 Rocket 2.7 16:59:24 10° NNW 17:04:59 64° WSW 17:10:32 10° SSE
Cosmos 1825 Rocket 3.6 17:01:33 10° S 17:05:47 55° E 17:10:02 10° NNE
ATLAS CENTAUR R/B 4.2 17:01:07 10° W 17:06:57 67° NNW 17:21:12 14° ENE
SMAP 4.3 17:02:52 10° S 17:07:19 45° W 17:11:49 10° NNW
Starlink AR 3.3 17:05:28 10° WNW 17:07:54 36° N 17:09:01 23° NE
Okean-O 2.7 17:04:05 10° SSE 17:08:31 83° WSW 17:12:59 10° NNW
Meteor 2-17 Rocket 4.4 17:02:56 10° S 17:09:05 85° E 17:15:15 10° N
CSL-04 Rocket 3.8 17:06:44 10° SE 17:12:03 52° ENE 17:17:27 10° N
ATLAS 5 CENTAUR R/B 3.5 17:09:12 10° WNW 17:12:51 23° NNW 17:16:56 10° NNE
Starlink AS 3.4 17:11:21 10° WNW 17:14:10 40° N 17:15:26 25° NE
Starlink BA 3.4 17:11:45 10° WNW 17:14:33 40° N 17:15:49 25° NE
Starlink AU 3.4 17:11:59 10° WNW 17:14:47 40° N 17:16:02 25° NE
Starlink AT 3.4 17:12:11 10° WNW 17:15:00 40° N 17:16:14 25° NE
Starlink BB 3.5 17:12:25 10° WNW 17:15:13 40° N 17:16:27 25° NE
Starlink BC 3.5 17:12:39 10° WNW 17:15:27 40° N 17:16:41 25° NE
Starlink BK 3.5 17:12:53 10° WNW 17:15:41 40° N 17:16:54 26° NE
Starlink AY 3.4 17:13:06 10° WNW 17:15:55 40° N 17:17:07 26° NE
Cosmos 1455 2.1 17:12:17 10° N 17:16:06 62° ENE 17:19:51 10° SSE
Shenzhou-11 Module 4.0 17:14:25 10° SSW 17:16:08 15° SSE 17:17:17 12° SE
Starlink AW 3.5 17:13:20 10° WNW 17:16:08 40° N 17:17:19 26° NE
USA 116 4.2 17:16:03 24° E 17:16:18 24° E 17:18:55 10° SSE
Starlink BJ 3.5 17:13:33 10° WNW 17:16:21 40° N 17:17:33 26° NE
Starlink AV 3.5 17:13:47 10° WNW 17:16:35 40° N 17:17:45 26° NE
Cosmos 1727 Rocket 4.2 17:10:45 10° N 17:16:41 45° ENE 17:22:33 10° SE
Starlink BD 3.5 17:14:00 10° WNW 17:16:48 40° N 17:17:58 26° NE
Starlink BE 3.5 17:14:12 10° WNW 17:17:01 40° N 17:18:12 26° NE
Ariane Rocket 3.8 17:12:46 10° ESE 17:17:02 28° ENE 17:21:18 10° N
Starlink BM 3.5 17:14:27 10° WNW 17:17:15 40° N 17:18:24 26° NE
Starlink AQ 3.5 17:14:26 10° WNW 17:17:16 40° N 17:18:26 26° NE
Starlink AX 3.5 17:14:42 10° WNW 17:17:30 40° N 17:18:38 27° NE
Starlink BH 3.5 17:14:55 10° WNW 17:17:43 40° N 17:18:51 27° NE
Starlink AZ 3.5 17:15:08 10° WNW 17:17:57 40° N 17:19:03 27° NE
Starlink BG 3.5 17:15:21 10° WNW 17:18:10 40° N 17:19:16 27° NE
Starlink BF 3.5 17:15:36 10° WNW 17:18:24 40° N 17:19:30 27° NE
Starlink BL 3.5 17:15:47 10° WNW 17:18:37 40° N 17:19:44 27° NE
CZ-2D R/B 3.7 17:15:09 10° SE 17:18:44 39° ENE 17:22:21 10° N
Starlink AH 3.5 17:16:02 10° WNW 17:18:50 40° N 17:19:55 27° NE
Starlink AC 3.5 17:16:16 10° WNW 17:19:05 40° N 17:20:09 27° NE
Starlink X 3.5 17:16:30 10° WNW 17:19:18 40° N 17:20:22 28° NE
Starlink AE 3.5 17:16:40 10° WNW 17:19:31 40° N 17:20:36 28° NE
Starlink Z 3.5 17:16:56 10° WNW 17:19:44 40° N 17:20:47 28° NE
Starlink AK 3.5 17:17:03 10° WNW 17:19:51 40° N 17:20:53 28° NE
ATLAS 5 CENTAUR R/B 3.6 17:16:23 10° NW 17:20:04 38° NE 17:28:16 15° E
Starlink AL 3.5 17:17:24 10° WNW 17:20:12 40° N 17:21:14 28° NE
Starlink AD 3.5 17:17:30 10° WNW 17:20:18 40° N 17:21:19 28° NE
Starlink Y 3.5 17:18:05 10° WNW 17:20:53 40° N 17:21:53 29° NE
Starlink AG 3.5 17:18:19 10° WNW 17:21:07 40° N 17:22:06 29° NE
Starlink W 3.5 17:18:23 10° WNW 17:21:12 40° N 17:22:13 29° NE
Starlink AJ 3.5 17:18:44 10° WNW 17:21:33 40° N 17:22:31 29° NE
Starlink AM 3.5 17:19:11 10° WNW 17:21:59 40° N 17:22:56 29° NE
Starlink AP 3.5 17:19:24 10° WNW 17:22:12 40° N 17:23:09 29° NE
Starlink AA 3.5 17:19:39 10° WNW 17:22:26 40° N 17:23:22 29° NE
Starlink AF 3.5 17:19:52 10° WNW 17:22:40 40° N 17:23:35 30° NE
Starlink AB 3.5 17:20:06 10° WNW 17:22:54 40° N 17:23:49 30° NE
Starlink AN 3.5 17:20:20 10° WNW 17:23:08 40° N 17:24:03 30° NE
Cosmos 2221 3.5 17:21:27 10° NNE 17:24:59 25° ENE 17:25:05 25° ENE
SKYMED 2 3.5 17:20:56 10° NNE 17:25:18 72° ESE 17:29:38 10° S
USA 234 4.3 17:19:45 10° SSE 17:26:00 47° SW 17:32:16 10° WNW
SL-8 Rocket 4.0 17:19:46 10° S 17:26:01 70° E 17:32:16 10° NNE
SL-16 R/B 2.1 17:23:09 10° NNW 17:28:53 83° ENE 17:34:33 10° SSE
ISS -3.3 17:25:39 10° SW 17:28:55 47° SSE 17:30:00 33° E
ATLAS CENTAUR R/B 1.3 17:26:01 10° NW 17:30:07 55° NE 17:32:07 25° ESE
CZ-4 R/B 1.4 17:27:48 10° SSE 17:31:54 87° W 17:36:05 10° NNW
Cosmos-2242 3.3 17:27:34 10° NNW 17:31:54 71° W 17:36:09 10° S
Meteor 1-27 4.4 17:28:00 10° N 17:33:21 44° ENE 17:38:39 10° SE
Meteor 1-11 4.4 17:32:01 10° SSE 17:37:18 45° E 17:42:35 10° NNE
Cosmos 2219 3.6 17:32:19 10° SW 17:37:53 63° WNW 17:43:31 10° NNE
Cosmos 2341 Rocket 4.2 17:32:06 10° SSW 17:38:28 75° W 17:44:50 10° N
Cosmos 2082 3.7 17:33:18 10° S 17:38:48 61° ESE 17:42:52 19° NE
Cosmos 1603 4.2 17:36:03 10° NNW 17:41:21 38° NE 17:43:21 29° E
YAOGAN 1 2.6 17:39:38 10° SSE 17:43:58 84° WSW 17:48:20 10° NNW
Cosmos 2297 Rocket 2.4 17:41:00 10° SW 17:46:39 74° WNW 17:51:50 13° NNE
H-2A R/B 2.9 17:49:40 29° NE 17:49:40 29° NE 17:53:31 10° N
Cosmos 2251 Rocket 3.5 17:44:26 10° NNW 17:49:47 85° WSW 17:55:07 10° SSE
ADEOS Rocket 3.5 17:44:56 10° NNE 17:51:18 47° E 17:58:17 10° S
Cosmos 1328 3.7 17:47:37 10° S 17:51:39 89° WNW 17:55:21 12° N
Starlink T 3.6 17:50:55 10° WNW 17:53:41 41° N 17:53:41 41° N
Meteor 2-10 Rocket 4.0 17:48:53 10° NNW 17:54:09 61° W 17:59:11 10° S
Cosmos 1356 Rocket 3.2 17:50:15 10° N 17:54:18 79° ENE 17:58:23 10° SSE
Starlink N 3.6 17:52:36 10° WNW 17:55:19 41° NNW 17:55:19 41° NNW
Starlink Q 3.7 17:54:33 10° WNW 17:57:11 40° NNW 17:57:11 40° NNW
Cosmos 2263 Rocket 4.2 17:54:25 10° SE 17:54:46 11° SE 17:54:46 11° SE
ERBS 3.0 17:55:14 10° W 17:58:26 44° NNW 17:58:46 42° N
SL-8 R/B 3.9 17:53:59 10° WSW 17:58:42 58° SSE 17:59:55 44° ESE
Starlink P 3.8 17:56:20 10° WNW 17:58:54 40° NNW 17:58:54 40° NNW
Cosmos 1821 Rocket 4.3 17:53:32 10° SSE 17:59:27 43° E 18:05:20 10° NNE
Cosmos 2227 Rocket 2.5 17:53:56 10° SW 17:59:33 66° WNW 18:04:16 15° NNE
NOAA 11 4.4 17:54:57 10° S 18:00:27 73° WSW 18:05:58 10° NNW
Starlink U 3.8 17:58:06 10° WNW 18:00:36 39° NNW 18:00:36 39° NNW
ARGOS 3.8 18:02:01 34° NE 18:02:01 34° NE 18:06:12 10° N
Starlink B 3.9 17:59:54 10° WNW 18:02:20 38° NNW 18:02:20 38° NNW
Cosmos 864 Rocket 4.5 17:57:25 10° S 18:03:33 84° W 18:09:45 10° N
Cosmos 1140 Rocket 4.5 17:59:33 10° N 18:03:18 29° NE 18:03:18 29° NE
Cosmos 2218 Rocket 4.2 17:58:59 10° SSW 18:05:21 76° WNW 18:11:47 10° N
IRS-1A Rocket 4.2 18:01:08 10° SSE 18:06:48 65° ENE 18:12:24 10° N
SL-08 R/B 4.4 18:01:11 10° S 18:07:29 79° E 18:13:56 10° NNE
COSMO-SKYMED 1 3.9 18:09:15 10° N 18:13:18 40° WNW 18:17:22 10° SW
Starlink D 4.4 18:10:55 10° WNW 18:12:57 32° NW 18:12:57 32° NW
MOS 1 4.3 18:11:18 31° SE 18:13:59 59° ENE 18:19:35 10° N
Cosmos 1943 3.3 18:08:51 10° NNW 18:14:20 48° NE 18:14:37 48° ENE
Starlink S 4.5 18:12:48 10° WNW 18:14:46 31° NW 18:14:46 31° NW
Cosmos 1842 Rocket 3.6 18:13:06 10° NNW 18:17:35 82° W 18:22:05 10° S
SJ-11-01 4.1 18:18:29 62° ESE 18:19:06 71° ENE 18:23:49 10° N
Cosmos 2123 Rocket 4.2 18:16:15 10° N 18:22:05 47° ENE 18:22:05 47° ENE
Cosmos 44 3.5 18:22:08 10° SW 18:26:36 56° NW 18:27:21 49° N
Cosmos 1190 Rocket 4.4 18:25:43 10° NNW 18:29:54 47° NNE 18:29:54 47° NNE
CZ-2C R/B 3.8 18:32:42 42° NNE 18:32:42 42° NNE 18:36:49 10° N
Cosmos 1939 Rocket 4.5 18:27:43 10° SSW 18:31:19 34° W 18:34:59 10° NNW
Cosmos 1000 Rocket 4.3 18:25:20 10° N 18:31:34 84° E 18:37:49 10° S
USA 267 3.7 18:30:19 36° NE 18:32:37 51° NNW 18:38:53 10° W
Cosmos 407 Rocket 3.6 18:27:56 10° NNW 18:32:32 58° NNE 18:32:32 58° NNE
Meteor 2-12 Rocket 4.5 18:33:19 10° SSW 18:39:21 77° W 18:45:27 10° N
BREEZE-M DEB (TANK) 3.8 18:27:54 10° W 18:42:31 85° SSW 18:43:09 71° ESE
Ariane Rocket 3.8 18:50:51 10° S 18:55:45 49° W 19:00:42 10° NNW
ATLAS 5 CENTAUR R/B 4.0 18:55:49 10° NW 18:58:33 18° N 18:58:33 18° N
Cosmos 2221 4.0 18:58:43 10° NNW 19:02:03 35° WNW 19:02:03 35° WNW
ISS -0.6 19:02:20 10° W 19:02:59 15° W 19:02:59 15° W
ATLAS CENTAUR R/B 3.7 19:05:45 10° WNW 19:08:23 19° WSW 19:08:23 19° WSW
H-2A R/B 3.6 19:30:16 31° NW 19:30:16 31° NW 19:33:17 10° NNW
Cosmos 2297 Rocket 4.4 19:27:44 10° W 19:31:44 19° NW 19:33:40 16° NNW
ADEOS Rocket 4.3 19:30:40 10° N 19:36:46 43° WNW 19:43:27 10° SW
Cosmos 2227 Rocket 4.4 19:41:00 10° WNW 19:44:45 18° NW 19:46:07 16° NNW
